This is the latest recevied weather packets stored in our database for station/object AJ7DN. If no packets are shown the sender has not sent any weather packets the latest 10 day(s).
| Time | Temp. | Humidity | Pressure | Rain* | Wind** | Luminosity | Snow |
|---|---|---|---|---|---|---|---|
| 1777933105 | 22.78° C | 59% | 1016 hPa | 0 mm | - | 589 W/m² | - |
| 1777932801 | 23.33° C | 57% | 1016.2 hPa | 0 mm | - | 585 W/m² | - |
| 1777932499 | 22.78° C | 60% | 1016.3 hPa | 0 mm | - | 605 W/m² | - |
| 1777932195 | 22.78° C | 59% | 1016.4 hPa | 0 mm | - | 610 W/m² | - |
| 1777931893 | 22.78° C | 59% | 1016.4 hPa | 0 mm | - | 605 W/m² | - |
| 1777931589 | 23.33° C | 58% | 1016.4 hPa | 0 mm | - | 624 W/m² | - |
| 1777931285 | 22.78° C | 58% | 1016.3 hPa | 0 mm | - | 633 W/m² | - |
| 1777930982 | 22.78° C | 61% | 1016.4 hPa | 0 mm | - | 629 W/m² | - |
| 1777930678 | 22.78° C | 59% | 1016.5 hPa | 0 mm | - | 649 W/m² | - |
| 1777930375 | 22.78° C | 59% | 1016.8 hPa | 0 mm | - | 657 W/m² | - |
| 1777930072 | 22.22° C | 61% | 1016.9 hPa | 0 mm | - | 614 W/m² | - |
| 1777929768 | 22.22° C | 60% | 1016.7 hPa | 0 mm | - | 639 W/m² | - |
| 1777929466 | 22.22° C | 62% | 1016.8 hPa | 0 mm | - | 645 W/m² | - |
| 1777929161 | 21.67° C | 62% | 1016.9 hPa | 0 mm | - | 617 W/m² | - |
| 1777928859 | 21.67° C | 60% | 1017 hPa | 0 mm | - | 609 W/m² | - |
| 1777928556 | 21.67° C | 62% | 1017.1 hPa | 0 mm | - | 635 W/m² | - |
| 1777928253 | 21.67° C | 62% | 1017.2 hPa | 0 mm | - | 697 W/m² | - |
| 1777927951 | 21.11° C | 62% | 1017.3 hPa | 0 mm | - | 694 W/m² | - |
| 1777927649 | 21.67° C | 60% | 1017.4 hPa | 0 mm | - | 691 W/m² | - |
| 1777927347 | 21.11° C | 63% | 1017.4 hPa | 0 mm | - | 672 W/m² | - |
| 1777927046 | 20.56° C | 65% | 1017.2 hPa | 0 mm | - | 661 W/m² | - |
| 1777926743 | 20.56° C | 64% | 1017.4 hPa | 0 mm | - | 681 W/m² | - |
| 1777926443 | 20° C | 67% | 1017.5 hPa | 0 mm | - | 697 W/m² | - |
| 1777926141 | 19.44° C | 65% | 1017.6 hPa | 0 mm | - | 713 W/m² | - |
| 1777925838 | 19.44° C | 66% | 1017.7 hPa | 0 mm | - | 701 W/m² | - |
* Rain latest hour (hover to see other rain measurements)
** Current wind speed in m/s (hover to see current wind gust speed)